COSMOS 2474 (742) (37829 NORAD) Tracking and Keplerian Element Data

This shows tracking and keplerian element data for the satellite.

Feedback or suggestion? Click here.




ElementValue
Catalog37829
NameCOSMOS 2474 (742)
Epoch Orbit5610
Epoch Day351.557722
Epoch Year2018
RAAN165.6298
Inclination64.5152
Eccentricity0.0006495
Argument of Perigee235.6553
Mean Anonmoly221.792
Mean Motion2.13101828
Decay Rate1.26E-06
L11 37829U 11055A 18351.55772200 .00000126 00000-0 00000+0 0 9995
L22 37829 64.5152 165.6298 0006495 235.6553 221.7920 2.13101828 56105

Live tracking and technical data element details for COSMOS 2474 (742) (NORAD 37829). COSMOS 2474 (742) can be tracked NOW for your location showing map with azimuth and elevation plus other details from your city location.

Track the satellite on the map from your city or location and see movement details for azimuth, elevation, latitude, longitude, range, height, and movement on the map or in text.







IsCatalogInMostPopularTable: catalog: 37829, numindb: 64
Update: records affected: 1



GetName: 37829 COSMOS 2474 (742)

Hit Count: updated at: Tue, 18 Dec 2018 21:05:00 GMT